Regional Weather Roundup
Issued by NWS

Home | Current Version | Previous Version | Graphics & Text | Print | Product List | Glossary On
Versions: 1 2 3 4 5 6 7 8 9 10 11 12 13 14 15 16 17 18 19 20 21 22 23 24 25 26 27 28 29 30 31 32 33 34 35 36 37 38 39 40 41 42 43 44 45 46 47 48 49 50
000
ASUS43 KIND 212059
RWRIN

WEATHER ROUNDUP FOR INDIANA
NATIONAL WEATHER SERVICE INDIANAPOLIS IN
500 PM EDT SUN SEP 21 2014

NOTE: "FAIR" INDICATES FEW OR NO CLOUDS BELOW 12,000 FEET WITH NO
SIGNIFICANT WEATHER AND/OR OBSTRUCTIONS TO VISIBILITY.

* - STATION DOES NOT REPORT WEATHER SUCH AS PRECIPITATION OR FOG.

+ - STATION NOT QUALITY CONTROLLED BY THE NATIONAL WEATHER SERVICE.
    USE DATA WITH CAUTION...ESPECIALLY DEWPOINT AND RELATIVE
    HUMIDITY OBSERVATIONS.

INZ001>003-010>013-019-020-212200-
NORTHWEST INDIANA

CITY           SKY/WX    TMP DP  RH WIND       PRES   REMARKS
GARY /AIRPORT/ PTSUNNY   64  52  63 N12G23    29.97R
KNOX *+        CLOUDY    60  49  67 N13G18    29.95R
RENSSELAER +   CLOUDY    63  54  72 N8        29.97R
VALPARAISO     PTSUNNY   61  50  67 N15G23    29.96R

$$

LMZ046-743>745-212200-
SOUTHERN LAKE MICHIGAN

STATION/POSITION TIME  TEMP WIND        PRES
                       AIR  DIR/SP/G
                 (UTC) (F)  (DEG/KT/KT) (MB)
MICHIGAN CITY    2000   60  330/ 24/ 29   N/A

$$

INZ004-005-014>016-021>024-212200-
NORTH CENTRAL INDIANA

CITY           SKY/WX    TMP DP  RH WIND       PRES   REMARKS
GOSHEN         CLOUDY   N/A N/A N/A NW18G30   29.91R
PERU/GRISSOM   DRIZZLE   64  54  68 NW16G29   29.93R
SOUTH BEND     CLOUDY    59  49  69 N23G32    29.94R
WARSAW +       PTSUNNY   61  52  72 NW20G31   29.91R

$$

INZ006>009-017-018-025>027-212200-
NORTHEAST INDIANA

CITY           SKY/WX    TMP DP  RH WIND       PRES   REMARKS
ANGOLA *+      CLOUDY    61  52  72 NW17      29.85R
FORT WAYNE     PTSUNNY   62  53  72 W13G26    29.89R

$$

INZ028-029-035-036-043>045-051>053-212200-
WEST CENTRAL INDIANA

CITY           SKY/WX    TMP DP  RH WIND       PRES   REMARKS
GREENCASTLE +  PTSUNNY   68  50  52 NW10G22   29.96R
LAFAYETTE      MOSUNNY   64  51  62 NW10      29.96R
TERRE HAUTE    MOSUNNY   72  49  44 NW17G24   29.96R

$$

INZ030>032-037>040-046>048-054>057-064-065-212200-
CENTRAL INDIANA

CITY           SKY/WX    TMP DP  RH WIND       PRES   REMARKS
COLUMBUS       PTSUNNY   73  45  35 NW20G25   29.91S
FRANKFORT +    MOSUNNY   64  51  61 NW15G24   29.97R
INDIANAPOLIS   PTSUNNY   67  48  50 NW20      29.94R
-EAGLE CREEK   CLOUDY    67  47  48 NW21G29   29.94R
KOKOMO *+      PTSUNNY   64  50  59 NW20      29.93S
MT COMFORT *+  CLOUDY    66  39  37 NW20G29   29.94R
SHELBYVILLE    PTSUNNY   71  49  45 NW20G29   29.91R

$$

INZ033-034-041-042-049-050-058-059-212200-
EAST CENTRAL INDIANA

CITY           SKY/WX    TMP DP  RH WIND       PRES   REMARKS
MUNCIE         CLOUDY    67  47  48 NW15G32   29.91R

$$

INZ060-061-067>069-081>083-085>088-212200-
SOUTHWEST INDIANA

CITY           SKY/WX    TMP DP  RH WIND       PRES   REMARKS
EVANSVILLE     SUNNY     78  49  35 W13G21    29.95F

$$

INZ062-063-066-070>080-084-089>092-212200-
SOUTH CENTRAL AND SOUTHEAST INDIANA

CITY           SKY/WX    TMP DP  RH WIND       PRES   REMARKS
BLOOMINGTON    MOSUNNY   73  46  38 NW9G21    29.93S

$$




USA.gov is the U.S. government's official web portal to all federal, state and local government web resources and services.